This demonstration page uses our WeatherBlox Daily Observations layout. Learn more.

Left ArrowRight Arrow

31.84235, -102.49876

Hourly Observations for June 13, 2022

Temp ( °F °C ) Dew Point ( °F °C ) Humidity (%) Winds ( mph kmh ) Pressure ( in mb ) Visibility ( mi km ) Precip ( " mm )
12:53 am 00:53 Clear 87 30.6 49 9.4 27 27 SSE 14 22 29.71 1006 10 16 0.00 0.00
1:53 am 01:53 Clear 85 29.4 49 9.4 29 29 SSE 12 19 29.70 1006 10 16 0.00 0.00
2:53 am 02:53 Clear 83 28.3 48 8.9 30 30 SSE 12 19 29.69 1006 10 16 0.00 0.00
3:53 am 03:53 Clear 82 27.8 48 8.9 31 31 S 13 20 29.71 1006 10 16 0.00 0.00
4:53 am 04:53 Clear 82 27.8 50 10 33 33 S 15 24 29.71 1006 10 16 0.00 0.00
5:53 am 05:53 Clear 81 27.2 52 11.1 37 37 S 14 22 29.71 1006 10 16 0.00 0.00
6:53 am 06:53 Sunny 79 26.1 57 13.9 47 47 S 17 28 29.71 1006 8 13 0.00 0.00
7:53 am 07:53 Sunny 80 26.7 59 15 49 49 S 18 30 29.72 1006 8 13 0.00 0.00
8:53 am 08:53 Sunny 83 28.3 60 15.6 46 46 S 21 33 29.73 1007 8 13 0.00 0.00
9:53 am 09:53 Sunny 87 30.6 60 15.6 40 40 S 20 31 29.72 1007 8 13 0.00 0.00
10:53 am 10:53 Sunny 90 32.2 59 15 35 35 S 22 35 29.71 1006 9 14 0.00 0.00
11:53 am 11:53 Sunny 94 34.4 58 14.4 30 30 S 25 41 29.71 1006 9 14 0.00 0.00
12:53 pm 12:53 Sunny 97 36.1 56 13.3 25 25 S 23 37 29.70 1006 9 14 0.00 0.00
1:53 pm 13:53 Sunny 99 37.2 55 12.8 23 23 SSW 22 35 29.68 1005 10 16 0.00 0.00
2:53 pm 14:53 Sunny 102 38.9 53 11.7 19 19 S 24 39 29.66 1004 10 16 0.00 0.00
3:53 pm 15:53 Sunny 101 38.3 51 10.6 19 19 S 26 43 29.65 1004 10 16 0.00 0.00
4:53 pm 16:53 Sunny 102 38.9 51 10.6 18 18 S 22 35 29.62 1003 10 16 0.00 0.00
5:53 pm 17:53 Sunny 100 37.8 48 8.9 17 17 S 26 43 29.61 1003 10 16 0.00 0.00
6:53 pm 18:53 Sunny 99 37.2 47 8.3 17 17 SSE 24 39 29.60 1002 10 16 0.00 0.00
7:53 pm 19:53 Sunny 96 35.6 47 8.3 19 19 S 24 39 29.61 1003 10 16 0.00 0.00
8:53 pm 20:53 Sunny 93 33.9 45 7.2 19 19 S 21 33 29.62 1003 10 16 0.00 0.00
9:53 pm 21:53 Clear 91 32.8 45 7.2 20 20 S 20 31 29.65 1004 10 16 0.00 0.00
10:53 pm 22:53 Clear 89 31.7 45 7.2 22 22 SSE 18 30 29.67 1005 10 16 0.00 0.00
11:53 pm 23:53 Clear 88 31.1 47 8.3 24 24 S 18 30 29.67 1005 10 16 0.00 0.00

Powered by AerisWeather